Simultaneous Nadir Overpasses (SNOs) Predictions

Prediction of SNOs between METOP-A and NOAA-19 Satellite Orbit:

Table of predicted SNOs for the next 14.0 days since TLE Epoch: 11/8/2013
Index Date (METOP-A) Time (METOP-A) Lat,Lon (METOP-A) SZA (METOP-A ) Date (NOAA-19) Time (NOAA-19) Lat,Lon (NOAA-19) SZA (NOAA-19 ) Distance(km) Time Diff (sec)
1 11/16/2013 16:14:47 -74.10, 110.97 87.10 11/16/2013 16:13:37 -74.13, 109.05 87.05 58.52 70
2 11/16/2013 17:05:34 73.72, -82.62 92.54 11/16/2013 17:04:26 73.71, -82.64 92.53 2.08 68
3 11/16/2013 17:56:17 -73.69, 84.62 87.49 11/16/2013 17:55:32 -73.68, 84.65 87.50 1.28 45
4 11/16/2013 18:46:57 73.65,-108.13 92.49 11/16/2013 18:46:29 73.65,-108.01 92.48 3.56 28
5 11/16/2013 19:37:39 -73.66, 59.23 87.50 11/16/2013 19:37:36 -73.67, 59.16 87.49 2.20 3
6 11/16/2013 20:28:19 73.63,-133.52 92.48 11/16/2013 20:28:33 73.64,-133.50 92.49 0.90 14
7 11/16/2013 21:19:02 -73.59, 33.72 87.55 11/16/2013 21:19:39 -73.61, 33.79 87.54 2.63 37
8 11/16/2013 22:09:41 73.61,-158.91 92.48 11/16/2013 22:10:37 73.62,-158.99 92.50 3.31 56
9 11/16/2013 23:00:27 -73.42, 7.99 87.70 11/16/2013 23:01:40 -73.45, 8.64 87.68 21.07 73




NCC Satellite Simultaneous Nadir Overpasses (SNOs) Prediction Service
